[[{"header":{"parameterUnit":"m.s-1","parameterCategory":1,"la1":30.2991,"la2":30.254,"lo1":-89.0895,"lo2":-89.0444,"dy":0.0017,"dx":0.0017,"nx":28,"ny":28,"refTime":"2025-08-29T03:00:00:Z","depth":0,"parameterNumber":2,"parameterNumberName":"U-component_of_WINDS"},"data":[0,0,0,0,0,0,0,0,0,0,0,0,0,0,0,0,0,0,0,0,0,0,0,0,0,0,0,0,0,0,0,0,0,0,0,0,0,0,0,0,0,0,0,0,0,0,0,0,0,0,0,0,0,0,0,0,0,0,-0.9313,-0.9312,0,-0.9207,-0.9206,-0.9205,-0.9136,-0.9135,-0.9135,-0.9134,-0.9025,-0.9023,-0.902,0,0,0,0,0,0,0,0,0,0,0,0,0,-0.9455,-0.9453,-0.9313,-0.9312,-0.931,-0.9207,-0.9206,-0.9205,-0.9136,-0.9135,-0.9135,-0.9134,-0.9026,-0.9023,-0.902,0,0,0,0,0,0,0,0,0,0,0,0,0,-0.9376,-0.9452,-0.9313,-0.9263,-0.9258,-0.9208,-0.9206,-0.9204,-0.9136,-0.9135,-0.9134,-0.9134,-0.9027,-0.9024,-0.902,-0.901,0,0,-0.9008,-0.9007,0,0,0,0,0,0,0,0,-0.938,-0.9371,-0.9272,-0.9267,-0.9261,-0.9184,-0.9216,-0.9139,-0.9136,-0.9182,-0.9134,-0.9133,-0.9079,-0.9071,-0.9052,-0.9005,-0.9001,-0.9008,-0.9006,-0.9004,-0.9003,0,0,0,0,0,0,0,-0.9386,-0.9375,-0.9271,-0.9271,-0.9264,-0.9247,-0.9235,-0.9201,-0.9135,-0.9178,-0.9173,-0.9161,-0.9075,-0.9056,-0.9049,-0.8999,-0.9008,-0.9005,-0.9003,-0.9001,-0.894,-0.894,0,0,0,0,0,0,-0.9399,-0.938,-0.9274,-0.9268,-0.932,-0.9245,-0.9231,-0.9209,-0.9136,-0.9124,-0.9162,-0.9158,-0.9063,-0.9054,-0.9045,-0.9029,-0.9004,-0.9001,-0.8999,-0.8939,-0.894,-0.894,0,0,0,0,0,0,-0.9403,-0.9391,-0.9279,-0.9322,-0.9307,-0.9243,-0.9219,-0.9207,-0.9188,-0.9123,-0.9111,-0.9154,-0.9062,-0.905,-0.902,-0.9025,-0.8999,-0.8996,-0.8938,-0.8939,-0.894,-0.8998,0,0,0,0,0,0,-0.9407,-0.9392,-0.9388,-0.9323,-0.9305,-0.9255,-0.9219,-0.9206,-0.9182,-0.9176,-0.9113,-0.9102,-0.906,-0.9026,-0.9016,-0.9019,-0.8993,-0.8938,-0.8939,-0.894,-0.8995,-0.9001,-0.9005,0,0,0,0,0,-0.9412,-0.9408,-0.9388,-0.9376,-0.9298,-0.9256,-0.9245,-0.9198,-0.9183,-0.9178,-0.9136,-0.9104,-0.9026,-0.9023,-0.9012,-0.9014,-0.8937,-0.8938,-0.894,-0.8993,-0.9,-0.9005,0,0,0,0,0,0,-0.9475,-0.9398,-0.9375,-0.935,-0.931,-0.9244,-0.9236,-0.9206,-0.9169,-0.9166,-0.9108,-0.9094,-0.907,-0.9039,-0.9037,-0.9001,-0.8978,-0.8977,-0.9022,-0.9028,-0.9033,-0.904,-0.899,0,0,0,0,0,-0.9486,-0.9458,-0.9392,-0.9376,-0.9357,-0.9301,-0.928,-0.9247,-0.9203,-0.9186,-0.9142,-0.9101,-0.9067,-0.9046,-0.9011,-0.8991,-0.8976,-0.8986,-0.8992,-0.8996,-0.8996,-0.8983,-0.8987,-0.8945,-0.8945,-0.8945,0,0,-0.9507,-0.9462,-0.9448,-0.9388,-0.9353,-0.9325,-0.9287,-0.9259,-0.9238,-0.9182,-0.915,-0.9117,-0.9067,-0.9042,-0.9028,-0.9015,-0.9004,-0.8998,-0.9002,-0.8999,-0.8985,-0.8989,-0.8993,-0.8946,-0.8946,-0.8945,0,0,-0.9533,-0.9496,-0.9479,-0.9445,-0.9393,-0.9355,-0.9351,-0.929,-0.9266,-0.9234,-0.9191,-0.9166,-0.9108,-0.9075,-0.905,-0.9065,-0.9033,-0.9055,-0.9081,-0.9069,-0.9073,-0.9075,-0.908,-0.9083,-0.9055,-0.9055,-0.9055,0,-0.9567,-0.9523,-0.9474,-0.9449,-0.9423,-0.9372,-0.9354,-0.9324,-0.9263,-0.9247,-0.9233,-0.9161,-0.9123,-0.909,-0.9093,-0.9075,-0.9069,-0.9061,-0.9076,-0.9078,-0.908,-0.9084,-0.9087,-0.9058,-0.9058,-0.9058,-0.9057,0,-0.9568,-0.9538,-0.9531,-0.9474,-0.9448,-0.9426,-0.9374,-0.9353,-0.9323,-0.9288,-0.9256,-0.9209,-0.9165,-0.9154,-0.9124,-0.9117,-0.911,-0.9087,-0.9062,-0.9088,-0.9091,-0.9092,-0.9062,-0.9061,-0.906,-0.906,0,0,-0.9628,-0.9545,-0.9543,-0.9517,-0.9456,-0.9432,-0.9409,-0.9366,-0.935,-0.931,-0.9289,-0.9243,-0.9221,-0.9194,-0.916,-0.915,-0.9164,-0.9128,-0.9126,-0.9136,-0.9153,-0.9171,-0.9174,-0.9144,-0.9144,-0.9144,-0.9158,0,-0.9645,-0.96,-0.9555,-0.9527,-0.9499,-0.9451,-0.9431,-0.9391,-0.9358,-0.933,-0.9292,-0.926,-0.9234,-0.9217,-0.9206,-0.9165,-0.9167,-0.9164,-0.9124,-0.9123,-0.9137,-0.9175,-0.9193,-0.9208,-0.9159,-0.9159,-0.9159,0,-0.9657,-0.962,-0.9589,-0.9532,-0.9519,-0.9501,-0.9458,-0.9432,-0.9387,-0.9363,-0.9333,-0.9297,-0.9271,-0.925,-0.9213,-0.9212,-0.9193,-0.9171,-0.917,-0.9164,-0.9142,-0.917,-0.9211,-0.9214,-0.916,-0.916,-0.916,0,-0.9705,-0.9647,-0.9621,-0.96,-0.9533,-0.9522,-0.9493,-0.9447,-0.9424,-0.9387,-0.9372,-0.9332,-0.931,-0.928,-0.9235,-0.9224,-0.9202,-0.9178,-0.9182,-0.9183,-0.9178,-0.9179,-0.9217,-0.9168,-0.9168,-0.9168,-0.9168,0,-0.9727,-0.971,-0.9641,-0.9625,-0.9605,-0.9554,-0.9535,-0.9502,-0.9462,-0.9439,-0.9395,-0.9375,-0.9316,-0.9289,-0.9253,-0.9228,-0.9218,-0.9198,-0.9189,-0.9202,-0.9204,-0.9188,-0.9185,-0.9168,-0.9168,-0.9168,-0.9168,0,-0.9776,-0.973,-0.9698,-0.9637,-0.9621,-0.9609,-0.9557,-0.954,-0.9504,-0.9475,-0.9466,-0.941,-0.9375,-0.9327,-0.9278,-0.9254,-0.9234,-0.9219,-0.9249,-0.9243,-0.925,-0.925,-0.9278,-0.9279,-0.923,-0.9231,-0.9231,0,-0.9793,-0.9779,-0.9717,-0.9698,-0.9671,-0.9642,-0.9619,-0.9568,-0.9546,-0.9494,-0.9483,-0.9446,-0.9412,-0.936,-0.9315,-0.9277,-0.9261,-0.9273,-0.9254,-0.9268,-0.926,-0.9262,-0.926,-0.9278,-0.9278,-0.9279,-0.928,0,-0.9829,-0.9807,-0.9775,-0.9735,-0.9708,-0.9674,-0.9639,-0.9626,-0.9568,-0.9546,-0.951,-0.9484,-0.9434,-0.9397,-0.9354,-0.9324,-0.9293,-0.9286,-0.9285,-0.9297,-0.9315,-0.9306,-0.9261,-0.9285,-0.9285,-0.9284,-0.9284,-0.9284,-0.9862,-0.9847,-0.9801,-0.9767,-0.9735,-0.9703,-0.9684,-0.9646,-0.9616,-0.9571,-0.9544,-0.9509,-0.9465,-0.9404,-0.9376,-0.9349,-0.9336,-0.9334,-0.9333,-0.9334,-0.9338,-0.9321,-0.934,-0.934,-0.934,-0.934,-0.934,0,-0.9895,-0.9863,-0.9832,-0.9784,-0.9757,-0.973,-0.969,-0.9669,-0.964,-0.9601,-0.957,-0.953,-0.9494,-0.9447,-0.9408,-0.9395,-0.9379,-0.9386,-0.9386,-0.938,-0.9352,-0.9357,-0.94,-0.94,-0.94,-0.94,-0.94,-0.94,-0.9909,-0.9882,-0.9855,-0.9813,-0.9781,-0.9747,-0.9726,-0.9696,-0.9666,-0.9622,-0.9593,-0.9562,-0.9521,-0.9478,-0.9445,-0.9432,-0.9419,-0.9431,-0.9413,-0.9388,-0.9382,-0.9377,-0.9381,-0.9429,-0.9429,-0.9444,-0.9444,-0.9444]},{"header":{"parameterUnit":"m.s-1","parameterCategory":1,"la1":30.2991,"la2":30.254,"lo1":-89.0895,"lo2":-89.0444,"dy":0.0017,"dx":0.0017,"nx":28,"ny":28,"refTime":"2025-08-29T03:00:00:Z","depth":0,"parameterNumber":3,"parameterNumberName":"V-component_of_WINDS"},"data":[0,0,0,0,0,0,0,0,0,0,0,0,0,0,0,0,0,0,0,0,0,0,0,0,0,0,0,0,0,0,0,0,0,0,0,0,0,0,0,0,0,0,0,0,0,0,0,0,0,0,0,0,0,0,0,0,0,0,3.0714,3.0712,0,3.0554,3.0552,3.055,3.0424,3.0423,3.0422,3.042,3.0252,3.0248,3.0245,0,0,0,0,0,0,0,0,0,0,0,0,0,3.0906,3.0903,3.0714,3.0712,3.071,3.0554,3.0552,3.055,3.0424,3.0423,3.0421,3.042,3.0253,3.0249,3.0245,0,0,0,0,0,0,0,0,0,0,0,0,0,3.0792,3.0902,3.0714,3.0629,3.0619,3.0555,3.0552,3.0549,3.0425,3.0423,3.0421,3.0419,3.0254,3.0249,3.0244,3.025,0,0,3.0229,3.0227,0,0,0,0,0,0,0,0,3.0799,3.0785,3.0643,3.0635,3.0624,3.0507,3.0558,3.0449,3.0425,3.0498,3.042,3.0418,3.0338,3.0326,3.03,3.0242,3.0235,3.0228,3.0225,3.0223,3.0222,0,0,0,0,0,0,0,3.0807,3.0791,3.065,3.0641,3.063,3.0597,3.0578,3.0536,3.043,3.0492,3.0482,3.0465,3.0332,3.0305,3.0295,3.0232,3.0228,3.0224,3.0221,3.0219,3.017,3.0172,0,0,0,0,0,0,3.0829,3.0799,3.0655,3.0646,3.0709,3.0595,3.0574,3.0546,3.043,3.0411,3.0467,3.046,3.0314,3.0301,3.0288,3.0286,3.0223,3.0218,3.0216,3.0168,3.017,3.0172,0,0,0,0,0,0,3.0833,3.0817,3.0662,3.072,3.0697,3.0593,3.0563,3.0544,3.0517,3.0412,3.0392,3.0459,3.0312,3.0295,3.026,3.0279,3.0216,3.0212,3.0166,3.0169,3.0171,3.0283,0,0,0,0,0,0,3.0839,3.082,3.0822,3.0721,3.0695,3.0639,3.0564,3.0542,3.0509,3.0498,3.0399,3.038,3.0309,3.0269,3.0255,3.027,3.0208,3.0164,3.0167,3.017,3.0277,3.0289,3.03,0,0,0,0,0,3.0847,3.0859,3.0823,3.0806,3.0696,3.064,3.0625,3.0544,3.0511,3.0511,3.0444,3.0384,3.0279,3.0266,3.025,3.0264,3.0162,3.0166,3.017,3.0272,3.0287,3.0299,0,0,0,0,0,0,3.0963,3.0844,3.0802,3.0783,3.0723,3.0619,3.0617,3.0563,3.0509,3.0501,3.0402,3.0381,3.0356,3.0307,3.0294,3.0263,3.0213,3.0214,3.0296,3.0309,3.032,3.0332,3.0203,0,0,0,0,0,3.0987,3.0953,3.085,3.0842,3.0815,3.0722,3.0694,3.0638,3.0571,3.0544,3.0474,3.041,3.0362,3.0333,3.0284,3.027,3.0246,3.0272,3.0283,3.0293,3.0294,3.0282,3.0292,3.0185,3.0185,3.0185,0,0,3.1034,3.0965,3.095,3.0864,3.0811,3.0777,3.0701,3.0668,3.0641,3.0538,3.0501,3.0448,3.037,3.0346,3.0331,3.0303,3.0318,3.0298,3.0306,3.0302,3.0287,3.0297,3.0306,3.0187,3.0187,3.0187,0,0,3.1103,3.1049,3.1036,3.0985,3.0906,3.0844,3.0841,3.0746,3.0707,3.0668,3.0591,3.0557,3.0478,3.0425,3.0388,3.0438,3.038,3.0425,3.0482,3.0471,3.048,3.0487,3.0504,3.0511,3.0427,3.0427,3.0427,0,3.1172,3.1119,3.1036,3.1007,3.0971,3.088,3.0865,3.0818,3.0727,3.0704,3.0674,3.0573,3.0514,3.0476,3.0488,3.0462,3.0454,3.0435,3.0486,3.0492,3.0497,3.0512,3.0519,3.0433,3.0433,3.0432,3.0431,0,3.1207,3.1171,3.117,3.1086,3.105,3.1029,3.094,3.0914,3.0861,3.0802,3.0763,3.069,3.0624,3.0611,3.0558,3.0564,3.0549,3.0505,3.0452,3.0515,3.0527,3.0532,3.0442,3.0439,3.0438,3.0436,0,0,3.1343,3.1214,3.1215,3.1175,3.1082,3.1052,3.1026,3.0963,3.0942,3.0882,3.0857,3.0792,3.075,3.0708,3.0649,3.064,3.0683,3.0595,3.0592,3.0613,3.0685,3.0719,3.0727,3.0645,3.0646,3.0647,3.0691,0,3.1396,3.1346,3.1271,3.1245,3.121,3.1123,3.11,3.104,3.0984,3.0945,3.0883,3.0838,3.0787,3.0761,3.0748,3.0681,3.0696,3.0677,3.0619,3.0618,3.064,3.0733,3.0768,3.0814,3.0695,3.0696,3.0697,0,3.1451,3.1398,3.137,3.1279,3.1262,3.1243,3.1179,3.1143,3.1073,3.1033,3.0987,3.0923,3.0889,3.0844,3.0795,3.0784,3.0756,3.072,3.0719,3.0709,3.066,3.0724,3.0826,3.0833,3.0703,3.0703,3.0702,0,3.1552,3.1473,3.1446,3.1415,3.1309,3.1298,3.1253,3.118,3.1147,3.1091,3.1068,3.1009,3.0976,3.093,3.0851,3.0825,3.0811,3.0759,3.0776,3.0778,3.0775,3.0776,3.0873,3.076,3.076,3.076,3.076,0,3.1618,3.1604,3.149,3.1473,3.1454,3.1367,3.135,3.1296,3.1233,3.1203,3.1124,3.1097,3.0995,3.0956,3.0894,3.0863,3.0848,3.0814,3.0797,3.082,3.0825,3.0799,3.0794,3.0761,3.0761,3.0761,3.076,0,3.1727,3.165,3.1614,3.1518,3.1493,3.1483,3.1399,3.1379,3.1319,3.1282,3.1268,3.1174,3.1124,3.1041,3.0966,3.0924,3.0905,3.0877,3.0929,3.0919,3.094,3.0939,3.1023,3.1029,3.0914,3.0915,3.0916,0,3.1774,3.1761,3.1664,3.1639,3.1597,3.1558,3.1524,3.1438,3.1406,3.1325,3.1314,3.1258,3.1208,3.1132,3.1056,3.0998,3.0968,3.1002,3.0959,3.0982,3.0967,3.0969,3.0967,3.1011,3.1013,3.1014,3.1015,0,3.1865,3.1828,3.1783,3.1726,3.1689,3.1638,3.1584,3.1568,3.1469,3.1437,3.1386,3.1348,3.1272,3.1217,3.1149,3.11,3.1041,3.103,3.103,3.1053,3.1083,3.1066,3.0955,3.1028,3.1027,3.1026,3.1025,3.1025,3.1943,3.1927,3.1857,3.181,3.176,3.1712,3.1688,3.1626,3.1582,3.1515,3.1466,3.1418,3.1347,3.125,3.1205,3.1165,3.1138,3.1139,3.1139,3.1141,3.1149,3.1091,3.1152,3.1152,3.1151,3.1151,3.115,0,3.2029,3.198,3.1938,3.1865,3.1828,3.1778,3.1715,3.1687,3.1646,3.1586,3.1539,3.148,3.1427,3.1347,3.1287,3.127,3.1241,3.1257,3.1257,3.1246,3.1177,3.1182,3.1281,3.1281,3.1281,3.1281,3.1281,3.1281,3.207,3.2041,3.1995,3.194,3.189,3.1844,3.1812,3.1767,3.1718,3.1656,3.1612,3.1561,3.1492,3.1427,3.1375,3.1352,3.1334,3.1358,3.1327,3.1263,3.1251,3.124,3.1244,3.1355,3.1355,3.14,3.14,3.1401]}]]